When you browse on this site, cookies collect data to enhance your experience and personalize the content and advertising you see.
Visit our Privacy Policy to learn more. By continuing to use the site, you agree to this use of cookies and data.

Hourly Weather Annaba

Today, 14 July, Tuesday

Time Temperature Precipitation Wind Pressure Humidity
00:00 +24°C° 0 mm 1 mps 759 mmHg 83%
01:00 +24°C° 0 mm 2 mps 759 mmHg 84%
02:00 +24°C° 0 mm 1 mps 758 mmHg 86%
03:00 +23°C° 0 mm 1 mps 758 mmHg 87%
04:00 +23°C° 0 mm 1 mps 758 mmHg 88%
05:00 +24°C° 0 mm 1 mps 758 mmHg 84%
06:00 +25°C° 0 mm 1 mps 758 mmHg 80%
07:00 +25°C° 0 mm 2 mps 758 mmHg 77%
08:00 +27°C° 0 mm 2 mps 759 mmHg 67%
09:00 +29°C° 0 mm 2 mps 759 mmHg 57%
10:00 +31°C° 0 mm 2 mps 759 mmHg 47%
11:00 +33°C° 0 mm 3 mps 759 mmHg 46%
12:00 +33°C° 0 mm 3 mps 758 mmHg 45%
13:00 +34°C° 0 mm 4 mps 758 mmHg 45%
14:00 +33°C° 0 mm 4 mps 758 mmHg 46%
15:00 +33°C° 0 mm 4 mps 757 mmHg 47%
16:00 +33°C° 0 mm 4 mps 757 mmHg 48%
17:00 +31°C° 0 mm 3 mps 757 mmHg 52%
18:00 +30°C° 0 mm 3 mps 757 mmHg 56%
19:00 +29°C° 0 mm 2 mps 758 mmHg 60%
20:00 +27°C° 0 mm 2 mps 758 mmHg 66%
21:00 +26°C° 0 mm 2 mps 758 mmHg 71%
22:00 +25°C° 0 mm 2 mps 758 mmHg 77%
23:00 +25°C° 0.1 mm 2 mps 758 mmHg 79%

Tomorrow, 15 July, Wednesday

Time Temperature Precipitation Wind Pressure Humidity
00:00 +25°C° 0.1 mm 1 mps 758 mmHg 80%
01:00 +24°C° 0.1 mm 1 mps 758 mmHg 81%
02:00 +25°C° 0.2 mm 1 mps 757 mmHg 81%
03:00 +25°C° 0.2 mm 1 mps 757 mmHg 80%
04:00 +25°C° 0.2 mm 1 mps 757 mmHg 80%
05:00 +25°C° 0 mm 1 mps 757 mmHg 78%
06:00 +26°C° 0 mm 1 mps 758 mmHg 76%
07:00 +26°C° 0 mm 1 mps 758 mmHg 74%
08:00 +28°C° 0 mm 2 mps 758 mmHg 69%
09:00 +29°C° 0 mm 3 mps 758 mmHg 64%
10:00 +30°C° 0 mm 3 mps 758 mmHg 59%
11:00 +30°C° 0 mm 4 mps 758 mmHg 58%
12:00 +32°C° 0 mm 5 mps 758 mmHg 58%
13:00 +32°C° 0 mm 6 mps 758 mmHg 57%
14:00 +30°C° 0.1 mm 5 mps 758 mmHg 57%
15:00 +30°C° 0.1 mm 5 mps 758 mmHg 57%
16:00 +30°C° 0.1 mm 4 mps 758 mmHg 57%
17:00 +29°C° 0 mm 4 mps 758 mmHg 61%
18:00 +28°C° 0 mm 3 mps 759 mmHg 64%
19:00 +27°C° 0 mm 3 mps 759 mmHg 68%
20:00 +26°C° 0 mm 2 mps 760 mmHg 72%
21:00 +25°C° 0 mm 1 mps 761 mmHg 76%
22:00 +22°C° 0 mm 0 mps 761 mmHg 80%
23:00 +22°C° 0 mm 0 mps 761 mmHg 81%

Day after tomorrow, 16 July, Thursday

Time Temperature Precipitation Wind Pressure Humidity
00:00 +22°C° 0 mm 0 mps 761 mmHg 82%
01:00 +21°C° 0 mm 0 mps 761 mmHg 83%
02:00 +21°C° 0 mm 0 mps 760 mmHg 84%
03:00 +23°C° 0 mm 1 mps 760 mmHg 84%
04:00 +23°C° 0 mm 1 mps 760 mmHg 85%
05:00 +24°C° 0 mm 1 mps 760 mmHg 81%
06:00 +22°C° 0 mm 0 mps 760 mmHg 77%
07:00 +23°C° 0 mm 0 mps 760 mmHg 73%
08:00 +27°C° 0 mm 1 mps 760 mmHg 65%
09:00 +28°C° 0 mm 2 mps 760 mmHg 58%
10:00 +30°C° 0 mm 2 mps 761 mmHg 50%
11:00 +30°C° 0 mm 3 mps 761 mmHg 48%
12:00 +32°C° 0 mm 4 mps 760 mmHg 47%
13:00 +32°C° 0 mm 4 mps 760 mmHg 45%
14:00 +32°C° 0 mm 4 mps 760 mmHg 47%
15:00 +32°C° 0 mm 4 mps 760 mmHg 48%
16:00 +30°C° 0 mm 4 mps 759 mmHg 49%
17:00 +29°C° 0 mm 4 mps 759 mmHg 54%
18:00 +28°C° 0 mm 4 mps 760 mmHg 58%
19:00 +27°C° 0 mm 3 mps 760 mmHg 62%
20:00 +26°C° 0 mm 3 mps 760 mmHg 68%
21:00 +25°C° 0 mm 2 mps 760 mmHg 73%
22:00 +24°C° 0 mm 1 mps 761 mmHg 78%
23:00 +24°C° 0 mm 1 mps 760 mmHg 79%

17 July, Friday

Time Temperature Precipitation Wind Pressure Humidity
00:00 +23°C° 0 mm 1 mps 760 mmHg 80%
01:00 +23°C° 0 mm 1 mps 760 mmHg 82%
02:00 +23°C° 0 mm 1 mps 760 mmHg 82%
03:00 +23°C° 0 mm 1 mps 759 mmHg 83%
04:00 +22°C° 0 mm 1 mps 759 mmHg 84%
05:00 +23°C° 0 mm 1 mps 759 mmHg 80%
06:00 +24°C° 0 mm 1 mps 759 mmHg 76%
07:00 +25°C° 0 mm 2 mps 760 mmHg 72%
08:00 +26°C° 0 mm 2 mps 760 mmHg 65%
09:00 +28°C° 0 mm 2 mps 760 mmHg 59%
10:00 +29°C° 0 mm 3 mps 760 mmHg 52%
11:00 +30°C° 0 mm 4 mps 759 mmHg 50%
12:00 +30°C° 0 mm 4 mps 759 mmHg 48%
13:00 +32°C° 0 mm 5 mps 759 mmHg 46%
14:00 +30°C° 0 mm 5 mps 759 mmHg 47%
15:00 +30°C° 0 mm 5 mps 758 mmHg 48%
16:00 +30°C° 0 mm 5 mps 758 mmHg 50%
17:00 +29°C° 0 mm 5 mps 758 mmHg 54%
18:00 +28°C° 0 mm 4 mps 758 mmHg 59%
19:00 +27°C° 0 mm 4 mps 759 mmHg 63%
20:00 +26°C° 0 mm 3 mps 759 mmHg 69%
21:00 +25°C° 0 mm 3 mps 759 mmHg 74%
22:00 +23°C° 0 mm 2 mps 760 mmHg 79%
23:00 +23°C° 0 mm 2 mps 759 mmHg 80%

18 July, Saturday

Time Temperature Precipitation Wind Pressure Humidity
00:00 +23°C° 0 mm 2 mps 759 mmHg 80%
01:00 +22°C° 0 mm 3 mps 759 mmHg 80%
02:00 +22°C° 0 mm 3 mps 759 mmHg 81%
03:00 +22°C° 0 mm 3 mps 759 mmHg 82%
04:00 +21°C° 0 mm 3 mps 759 mmHg 83%
05:00 +22°C° 0 mm 3 mps 759 mmHg 79%
06:00 +23°C° 0 mm 4 mps 759 mmHg 75%
07:00 +25°C° 0 mm 4 mps 759 mmHg 71%
08:00 +26°C° 0 mm 4 mps 759 mmHg 65%
09:00 +28°C° 0 mm 5 mps 759 mmHg 58%
10:00 +29°C° 0 mm 5 mps 759 mmHg 51%
11:00 +30°C° 0 mm 6 mps 759 mmHg 50%
12:00 +30°C° 0 mm 7 mps 759 mmHg 49%
13:00 +32°C° 0 mm 8 mps 759 mmHg 47%
14:00 +30°C° 0 mm 7 mps 759 mmHg 50%
15:00 +30°C° 0 mm 7 mps 758 mmHg 52%
16:00 +30°C° 0 mm 7 mps 758 mmHg 54%
17:00 +29°C° 0 mm 6 mps 758 mmHg 58%
18:00 +28°C° 0 mm 6 mps 759 mmHg 61%
19:00 +27°C° 0 mm 5 mps 759 mmHg 65%
20:00 +26°C° 0 mm 4 mps 759 mmHg 71%
21:00 +25°C° 0 mm 3 mps 760 mmHg 76%
22:00 +24°C° 0 mm 3 mps 760 mmHg 82%
23:00 +24°C° 0 mm 3 mps 760 mmHg 83%

19 July, Sunday

Time Temperature Precipitation Wind Pressure Humidity
00:00 +24°C° 0 mm 3 mps 760 mmHg 84%
01:00 +22°C° 0 mm 3 mps 760 mmHg 84%
02:00 +22°C° 0 mm 3 mps 759 mmHg 85%
03:00 +22°C° 0 mm 3 mps 759 mmHg 86%
04:00 +22°C° 0 mm 3 mps 759 mmHg 87%
05:00 +22°C° 0 mm 3 mps 759 mmHg 83%
06:00 +24°C° 0 mm 3 mps 760 mmHg 80%
07:00 +25°C° 0 mm 3 mps 760 mmHg 76%
08:00 +26°C° 0 mm 3 mps 760 mmHg 70%
09:00 +27°C° 0 mm 3 mps 760 mmHg 64%
10:00 +28°C° 0 mm 3 mps 760 mmHg 59%
11:00 +29°C° 0 mm 4 mps 760 mmHg 55%
12:00 +30°C° 0 mm 4 mps 760 mmHg 52%
13:00 +32°C° 0 mm 4 mps 760 mmHg 49%
14:00 +32°C° 0 mm 4 mps 760 mmHg 50%
15:00 +32°C° 0 mm 4 mps 760 mmHg 50%
16:00 +32°C° 0 mm 4 mps 759 mmHg 51%
17:00 +30°C° 0 mm 4 mps 760 mmHg 56%
18:00 +28°C° 0 mm 3 mps 760 mmHg 61%
19:00 +27°C° 0 mm 2 mps 760 mmHg 66%
20:00 +26°C° 0 mm 2 mps 760 mmHg 72%
21:00 +25°C° 0 mm 1 mps 761 mmHg 78%
22:00 +22°C° 0 mm 0 mps 761 mmHg 84%
23:00 +24°C° 0 mm 1 mps 761 mmHg 85%
Show more